Marysville, CA

3:13 PM PDT on April 28, 2017 (GMT -0700)
Yuba County

Weather History for KMYV - November, 2012

Change the Weather History Date:

Friday, November 2, 2012

  Actual Average Record
Temperature  
Mean Temperature 57 °F -  
Max Temperature 68 °F 72 °F 87 °F (1967)
Min Temperature 48 °F 45 °F 35 °F (2002)
Degree Days  
Heating Degree Days 8    
Growing Degree Days 7 (Base 50)    
Moisture  
Dew Point 51 °F    
Average Humidity 88    
Maximum Humidity 100    
Minimum Humidity 59    
Precipitation  
Precipitation 0.01 in - - ()
Sea Level Pressure  
Sea Level Pressure 30.05 in    
Wind  
Wind Speed 3 mph (NNW)    
Max Wind Speed 7 mph    
Max Gust Speed -    
Visibility 8 miles    
Events      
Averages and records for this station are not official NWS values.
T = Trace of Precipitation, MM = Missing Value Source: NWS Daily Summary

Daily Weather History Graph

Daily Weather History Graph

Search for Another Location

Airport or City:

Trip Planner

Search our weather history database for the weather conditions in past years. The results will help you decide how hot, cold, wet, or windy it might be!

Date:

Astronomy

Nov. 02, 2012 Rise Set
Actual Time 7:35 AM PDT 6:03 PM PDT
Civil Twilight 7:07 AM PDT 6:31 PM PDT
Nautical Twilight 6:36 AM PDT 7:03 PM PDT
Astronomical Twilight 6:04 AM PDT 7:34 PM PDT
Moon 8:56 PM PDT (11/2) 10:59 AM PDT (11/2)
Length of Visible Light 11h 23m
Length of Day
10h 28m
Waning Gibbous, 86% of the Moon is Illuminated
Nov 2
Waning Gibbous
Nov 6
Last Quarter
Nov 13
New
Nov 20
First Quarter
Nov 28
Full

Hourly Weather History & Observations

Time (PDT) Temp. Dew Point Humidity Pressure Visibility Wind Dir Wind Speed Gust Speed Precip Events Conditions
12:09 AM 51.8 °F 51.8 °F 100% 30.04 in 1.5 mi NW 4.6 mph - N/A   Clear
12:16 AM 51.8 °F 51.8 °F 100% 30.04 in 1.2 mi NNW 3.5 mph - N/A   Clear
12:19 AM 51.8 °F 51.8 °F 100% 30.04 in 2.5 mi NNW 3.5 mph - N/A   Clear
12:26 AM 53.6 °F 51.8 °F 94% 30.05 in 6.0 mi North 3.5 mph - N/A   Clear
12:53 AM 54.0 °F 54.0 °F 100% 30.06 in 10.0 mi Calm Calm - N/A   Clear
1:53 AM 51.1 °F 50.0 °F 96% 30.05 in 9.0 mi Calm Calm - N/A   Clear
2:53 AM 53.1 °F 52.0 °F 96% 30.05 in 9.0 mi Calm Calm - 0.01 in   Clear
3:53 AM 52.0 °F 51.1 °F 97% 30.06 in 8.0 mi North 3.5 mph - N/A   Clear
4:53 AM 52.0 °F 51.1 °F 97% 30.05 in 9.0 mi North 4.6 mph - N/A   Clear
5:18 AM 51.8 °F 50.0 °F 94% 30.05 in 6.0 mi NNW 5.8 mph - N/A   Partly Cloudy
5:53 AM 51.1 °F 50.0 °F 96% 30.06 in 8.0 mi Calm Calm - N/A   Clear
6:26 AM 48.2 °F 48.2 °F 100% 30.05 in 1.8 mi NNW 3.5 mph - N/A   Clear
6:30 AM 48.2 °F 46.4 °F 93% 30.05 in 0.8 mi North 3.5 mph - N/A   Clear
6:38 AM 48.2 °F 48.2 °F 100% 30.05 in 1.8 mi North 4.6 mph - N/A   Clear
6:40 AM 50.0 °F 48.2 °F 94% 30.05 in 3.0 mi North 3.5 mph - N/A   Clear
6:53 AM 50.0 °F 48.9 °F 96% 30.06 in 7.0 mi North 3.5 mph - N/A   Clear
7:53 AM 48.0 °F 48.0 °F 100% 30.06 in 6.0 mi NNW 6.9 mph - N/A   Clear
8:53 AM 53.1 °F 51.1 °F 93% 30.08 in 10.0 mi North 6.9 mph - N/A   Clear
9:53 AM 55.9 °F 52.0 °F 87% 30.09 in 10.0 mi North 3.5 mph - N/A   Clear
10:53 AM 57.9 °F 52.0 °F 81% 30.09 in 10.0 mi NNW 3.5 mph - N/A   Clear
11:53 AM 62.1 °F 52.0 °F 70% 30.09 in 10.0 mi NNW 3.5 mph - N/A   Clear
12:53 PM 64.9 °F 51.1 °F 61% 30.06 in 10.0 mi North 4.6 mph - N/A   Clear
1:53 PM 66.9 °F 52.0 °F 59% 30.05 in 10.0 mi NW 4.6 mph - N/A   Clear
2:53 PM 66.9 °F 52.0 °F 59% 30.03 in 10.0 mi WNW 4.6 mph - N/A   Clear
3:53 PM 66.9 °F 52.0 °F 59% 30.04 in 10.0 mi NNW 4.6 mph - N/A   Clear
4:53 PM 66.0 °F 54.0 °F 65% 30.03 in 10.0 mi WNW 3.5 mph - N/A   Clear
5:53 PM 64.9 °F 52.0 °F 63% 30.03 in 10.0 mi NNE 3.5 mph - N/A   Clear
6:53 PM 57.9 °F 53.1 °F 84% 30.04 in 10.0 mi Calm Calm - N/A   Clear
7:53 PM 55.0 °F 53.1 °F 93% 30.05 in 10.0 mi Calm Calm - N/A   Clear
8:53 PM 55.0 °F 53.1 °F 93% 30.05 in 10.0 mi Calm Calm - N/A   Clear
9:53 PM 55.9 °F 54.0 °F 93% 30.06 in 10.0 mi Calm Calm - N/A   Clear
10:53 PM 57.0 °F 54.0 °F 89% 30.07 in 10.0 mi Calm Calm - N/A   Clear
11:53 PM 54.0 °F 53.1 °F 97% 30.07 in 10.0 mi Calm Calm - N/A   Clear